Tracking 18843 objects as of 20-November-2017
HD Live streaming from Space Station
objects crossing your sky now

FLOCK 3P 9

Track FLOCK 3P 9 now!
10-day predictions
FLOCK 3P 9 is classified as:


NORAD ID: 41973
Int'l Code: 2017-008AB
Perigee: 496.6 km
Apogee: 508.4 km
Inclination: 97.5 °
Period: 94.5 minutes
Semi major axis: 6873 km
RCS: Unknown
Launch date: February 15, 2017
Source: United States (US)
Launch site: SRIHARIKOTA (SRI)
aabbcc
Your satellite tracking list
Your tracking list is empty




NASA's NSSDC Master Catalog

Two Line Element Set (TLE):
1 41973U 17008AB  17323.76384191 +.00003529 +00000-0 +15088-3 0  9999
2 41973 097.4785 024.6139 0008621 018.6115 341.5435 15.23479432042135
Source of the keplerian elements: AFSPC